EW2817 Weather Reports


Display with metric or nautical units.
time (UTC)temp
F
wind
direction
speed
MPH
gust
MPH
rain 1hr
in
rain 24hr
in
rain mn
in
humidity
%
barometer
mb
20260508184712 71 0 0.0 0.0 0.00 0.04 0.00 44 992.1
20260508183212 71 0 0.0 0.0 0.00 0.05 0.00 44 992.3
20260508181703 71 0 0.0 0.0 0.00 0.07 0.00 44 992.4
20260508174701 71 0 0.0 0.0 0.00 0.10 0.00 47 992.9
20260508173159 70 0 0.0 0.0 0.00 0.11 0.00 46 993.0
20260508171659 69 0 0.0 0.0 0.00 0.15 0.00 44 993.1
20260508170157 70 0 0.0 0.0 0.00 0.16 0.00 48 993.3
20260508164659 69 0 0.0 0.0 0.00 0.17 0.00 46 993.6
20260508163157 68 0 0.0 0.0 0.00 0.19 0.00 50 993.8
20260508160156 66 0 0.0 0.0 0.00 0.22 0.00 53 994.1
20260508154655 65 0 0.0 0.0 0.00 0.23 0.00 67 994.2
20260508153154 65 0 0.0 0.0 0.00 0.24 0.00 62 994.5
20260508151653 63 0 0.0 0.0 0.00 0.25 0.00 69 994.6
20260508150151 63 0 0.0 0.0 0.00 0.26 0.00 65 994.6
20260508144650 61 0 0.0 0.0 0.00 0.27 0.00 68 994.5
20260508143151 60 0 0.0 0.0 0.00 0.28 0.00 78 994.4
20260508141649 57 0 0.0 0.0 0.00 0.29 0.00 84 994.3
20260508140149 55 0 0.0 0.0 0.00 0.30 0.00 93 994.2
20260508134648 53 0 0.0 0.0 0.00 0.31 0.00 96 994.1
20260508133145 51 0 0.0 0.0 0.00 0.33 0.00 96 994.0
20260508131642 51 0 0.0 0.0 0.00 0.34 0.00 96 993.9
20260508130142 50 0 0.0 0.0 0.00 0.35 0.00 96 993.9
20260508124640 49 0 0.0 0.0 0.00 0.36 0.00 96 994.0
20260508121640 47 0 0.0 0.0 0.00 0.38 0.00 96 993.6
20260508120138 47 0 0.0 0.0 0.00 0.38 0.00 96 993.4
20260508114637 47 0 0.0 0.0 0.00 0.39 0.00 96 993.2
20260508113133 47 0 0.0 0.0 0.00 0.40 0.00 96 993.1
20260508111626 47 0 0.0 0.0 0.00 0.41 0.00 96 992.8
20260508104626 47 0 0.0 0.0 0.00 0.42 0.00 96 992.4
20260508100126 48 0 0.0 0.0 0.00 0.45 0.00 96 991.6
20260508094624 48 0 0.0 0.0 0.00 0.45 0.00 96 991.5
20260508093125 49 0 0.0 0.0 0.00 0.46 0.00 96 991.6
20260508091620 49 0 0.0 0.0 0.00 0.46 0.00 96 991.4
20260508083111 50 0 0.0 0.0 0.00 0.47 0.00 96 990.7
20260508081609 50 0 0.0 0.0 0.00 0.47 0.00 96 990.7
20260508074608 51 0 0.0 0.0 0.00 0.48 0.00 96 990.5
20260508073108 51 0 0.0 0.0 0.00 0.48 0.00 96 990.2
20260508071605 51 0 0.0 0.0 0.00 0.48 0.00 96 990.0
20260508064601 51 0 0.0 0.0 0.00 0.48 0.00 96 990.0
20260508063059 51 0 0.0 0.0 0.00 0.49 0.00 96 990.0
20260508061557 51 0 0.0 0.0 0.00 0.49 0.00 96 990.1
20260508060057 51 0 0.0 0.0 0.00 0.49 0.00 96 990.0
20260508054558 50 0 0.0 0.0 0.00 0.49 0.00 96 990.2
20260508051558 51 0 0.0 0.0 0.00 0.50 0.00 96 990.3
20260508050050 51 0 0.0 0.0 0.00 0.50 0.00 96 990.0
20260508044547 51 0 0.0 0.0 0.00 0.51 0.00 96 990.0
20260508043047 51 0 0.0 0.0 0.00 0.51 0.00 96 989.8
20260508041546 52 0 0.0 0.0 0.00 0.52 0.00 96 989.8
20260508033043 52 0 0.0 0.0 0.00 0.54 0.53 96 989.3
20260508031543 53 0 0.0 0.0 0.00 0.54 0.53 96 989.5
20260508030040 53 0 0.0 0.0 0.00 0.54 0.53 96 989.5
20260508024535 53 0 0.0 0.0 0.00 0.55 0.53 96 989.1
20260508021531 53 0 0.0 0.0 0.00 0.55 0.53 96 988.9
20260508020030 53 0 0.0 0.0 0.00 0.55 0.53 96 988.9
20260508014529 53 0 0.0 0.0 0.00 0.55 0.53 96 988.5
20260508013024 53 0 0.0 0.0 0.00 0.55 0.53 96 988.2
20260508011522 54 0 0.0 0.0 0.00 0.55 0.53 96 988.1
20260508010020 54 0 0.0 0.0 0.00 0.55 0.53 96 988.1
20260508004519 54 0 0.0 0.0 0.00 0.55 0.53 96 988.0
20260508003018 54 0 0.0 0.0 0.00 0.55 0.53 96 987.9
20260508001516 54 0 0.0 0.0 0.00 0.55 0.53 96 987.7
20260508000015 54 0 0.0 0.0 0.00 0.55 0.53 96 987.6
20260507234514 55 0 0.0 0.0 0.00 0.55 0.53 96 987.2
20260507231513 55 0 0.0 0.0 0.00 0.55 0.53 96 986.8
20260507230010 55 0 0.0 0.0 0.00 0.55 0.53 96 986.9
20260507224508 56 0 0.0 0.0 0.00 0.55 0.53 96 986.6
20260507223006 56 0 0.0 0.0 0.00 0.55 0.53 96 986.4
20260507214501 56 0 0.0 0.0 0.00 0.55 0.53 96 986.6
20260507213000 56 0 0.0 0.0 0.00 0.55 0.53 96 986.6
20260507211500 56 0 0.0 0.0 0.00 0.55 0.53 96 986.7
20260507205956 56 0 0.0 0.0 0.00 0.55 0.53 95 986.3
20260507204455 56 0 0.0 0.0 0.00 0.55 0.53 96 986.3
20260507202955 56 0 0.0 0.0 0.00 0.55 0.53 96 986.1
20260507201456 56 0 0.0 0.0 0.01 0.55 0.53 95 986.2
20260507195955 57 0 0.0 0.0 0.02 0.55 0.53 96 986.1
20260507194450 57 0 0.0 0.0 0.04 0.55 0.53 95 986.3
20260507192950 57 0 0.0 0.0 0.05 0.55 0.53 95 986.2
20260507191450 57 0 0.0 0.0 0.06 0.54 0.52 95 986.4